Location: Ripley
(48.3812°N, 115.4473°W)
Time: 04:09:07
(UTC+00:00)

UWE-3 - Visible Passes

Search period start: 29 June 2022 00:00
Search period end: 09 July 2022 00:00
Orbit: 581 x 680 km, 97.7° (Epoch: 28 June)

Date Brightness Start Highest point End Pass type
(mag) Time Alt. Az. Time Alt. Az. Time Alt. Az.
30 Jun ? 10:00:52 10° NE 10:03:33 16° E 10:06:16 10° SE visible
01 Jul ? 10:20:40 10° NE 10:24:15 25° E 10:27:54 10° SSE visible
02 Jul ? 10:40:49 10° NNE 10:44:54 39° E 10:49:04 10° SSE visible
03 Jul ? 11:01:09 10° NNE 11:05:29 62° E 11:09:55 10° S visible
04 Jul ? 09:47:26 10° ENE 09:49:07 12° E 09:50:49 10° ESE visible
05 Jul ? 10:06:44 10° NE 10:09:52 19° E 10:13:03 10° SE visible
06 Jul ? 10:26:41 10° NE 10:30:33 29° E 10:34:28 10° SSE visible
07 Jul ? 10:46:54 10° NNE 10:51:10 46° E 10:55:31 10° S visible
